G0TRT-13 Weather Reports


time (UTC)temp
F
wind
direction
speed
knots
gust
knots
rain 1hr
in
rain 24hr
in
rain mn
in
humidity
%
barometer
mb
20260508020534 47 98 0.0 0.0 0.00 0.00 0.00 85 1015.0
20260508020030 47 98 0.0 0.0 0.00 0.00 0.00 85 1015.0
20260508015530 47 98 0.0 0.9 0.00 0.00 0.00 85 1015.2
20260508015028 47 98 0.0 0.9 0.00 0.00 0.00 84 1015.1
20260508014523 47 95 0.0 0.0 0.00 0.00 0.00 84 1015.1
20260508014016 47 95 0.0 0.0 0.00 0.00 0.00 84 1015.0
20260508013516 48 95 0.0 0.0 0.00 0.00 0.00 83 1015.1
20260508013016 48 94 0.0 0.9 0.00 0.00 0.00 83 1015.0
20260508012516 48 98 0.0 0.9 0.00 0.00 0.00 83 1015.0
20260508012017 48 94 0.0 0.9 0.00 0.00 0.00 83 1015.1
20260508011514 48 94 0.0 0.9 0.00 0.00 0.00 82 1015.1
20260508011013 48 93 0.0 0.9 0.00 0.00 0.00 82 1015.1
20260508010511 48 93 0.0 0.9 0.00 0.00 0.00 82 1015.1
20260508010008 48 93 0.0 0.9 0.00 0.00 0.00 82 1015.1
20260508005506 48 93 0.0 0.9 0.00 0.00 0.00 81 1015.2
20260508005006 49 93 0.0 0.9 0.00 0.00 0.00 81 1015.1
20260508004509 49 93 0.0 1.7 0.00 0.00 0.00 81 1015.1
20260508004009 49 84 0.0 1.7 0.00 0.00 0.00 81 1015.1
20260508003508 49 96 0.0 1.7 0.00 0.00 0.00 81 1015.0
20260508003008 49 198 0.0 0.9 0.00 0.00 0.00 81 1015.2
20260508002506 49 95 0.0 0.9 0.00 0.00 0.00 81 1015.1
20260508002007 49 94 0.0 0.9 0.00 0.00 0.00 81 1015.0
20260508001507 49 122 0.0 1.7 0.00 0.00 0.00 80 1015.1
20260508000506 49 95 0.0 1.7 0.00 0.00 0.00 79 1015.3
20260508000007 49 94 0.0 1.7 0.00 0.00 0.00 79 1015.2
20260507235505 49 96 0.0 1.7 0.00 0.00 0.00 79 1015.2
20260507235006 49 198 0.0 1.7 0.00 0.00 0.00 78 1015.1
20260507234504 49 95 0.0 0.9 0.00 0.00 0.00 78 1015.3
20260507234009 49 100 0.0 1.7 0.00 0.00 0.00 78 1015.2
20260507233504 49 217 0.0 1.7 0.00 0.00 0.00 78 1015.2
20260507233004 49 94 0.0 1.7 0.00 0.00 0.00 77 1015.2
20260507232502 49 94 0.0 1.7 0.00 0.00 0.00 77 1015.3
20260507232004 49 108 0.0 1.7 0.00 0.00 0.00 77 1015.3
20260507231502 49 65 0.0 1.7 0.00 0.00 0.00 77 1015.4
20260507231004 49 96 0.0 0.9 0.00 0.00 0.00 77 1015.4
20260507230514 49 96 0.0 0.9 0.00 0.00 0.00 76 1015.3
20260507230006 49 94 0.0 0.9 0.00 0.00 0.00 76 1015.3
20260507225503 49 139 0.0 0.9 0.00 0.00 0.00 75 1015.3
20260507225004 49 176 0.0 1.7 0.00 0.00 0.00 75 1015.4
20260507224502 49 140 0.0 1.7 0.00 0.00 0.00 75 1015.5
20260507224005 49 97 0.0 0.9 0.00 0.00 0.00 75 1015.5
20260507223503 49 115 0.0 0.9 0.00 0.00 0.00 74 1015.5
20260507223004 49 95 0.0 0.9 0.00 0.00 0.00 74 1015.5
20260507222502 49 92 0.0 0.9 0.00 0.00 0.00 74 1015.5
20260507222004 49 91 0.0 0.9 0.00 0.00 0.00 74 1015.5
20260507221502 49 137 0.0 0.9 0.00 0.00 0.00 74 1015.5
20260507221004 49 193 0.0 0.9 0.00 0.00 0.00 74 1015.5
20260507220502 49 200 0.0 0.9 0.00 0.00 0.00 74 1015.5
20260507220005 49 94 0.0 0.9 0.00 0.00 0.00 74 1015.8
20260507215502 49 94 0.0 0.9 0.00 0.00 0.00 73 1015.7
20260507215004 49 91 0.0 0.0 0.00 0.00 0.00 73 1015.7
20260507214502 49 185 0.0 0.0 0.00 0.00 0.00 73 1015.7
20260507214004 49 183 0.0 0.0 0.00 0.00 0.00 72 1015.7
20260507213502 49 183 0.0 0.0 0.00 0.00 0.00 72 1015.5
20260507213004 49 184 0.0 0.0 0.00 0.00 0.00 72 1015.7
20260507212458 49 184 0.0 0.0 0.00 0.00 0.00 72 1015.5
20260507211958 49 184 0.0 0.0 0.00 0.00 0.00 72 1015.7
20260507211458 49 183 0.0 0.0 0.00 0.00 0.00 72 1015.5
20260507210958 49 185 0.0 0.0 0.00 0.00 0.00 72 1015.4
20260507210458 50 185 0.0 0.0 0.00 0.00 0.00 72 1015.4
20260507205958 49 185 0.0 0.0 0.00 0.00 0.00 72 1015.2
20260507205458 49 185 0.0 0.0 0.00 0.00 0.00 72 1015.2
20260507204958 49 185 0.0 0.0 0.00 0.00 0.00 72 1015.1
20260507204459 49 185 0.0 0.0 0.00 0.00 0.00 72 1015.2
20260507203953 49 185 0.0 0.0 0.00 0.00 0.00 71 1015.1
20260507203455 49 185 0.0 0.0 0.00 0.00 0.00 71 1015.2
20260507202951 49 185 0.0 0.0 0.00 0.00 0.00 71 1015.1
20260507202451 49 185 0.0 0.0 0.00 0.00 0.00 72 1015.1
20260507201948 49 185 0.0 0.0 0.00 0.00 0.00 72 1015.0
20260507201447 49 185 0.0 0.0 0.00 0.00 0.00 71 1015.0
20260507200944 50 185 0.0 0.0 0.00 0.00 0.00 71 1015.0
20260507200441 50 185 0.0 0.0 0.00 0.00 0.00 71 1015.0
20260507195939 50 185 0.0 0.0 0.00 0.00 0.00 71 1015.0
20260507195438 50 185 0.0 0.0 0.00 0.00 0.00 71 1014.9
20260507194936 50 185 0.0 0.0 0.00 0.00 0.00 71 1014.9
20260507194434 50 186 0.0 0.0 0.00 0.00 0.00 71 1014.8
20260507193932 50 186 0.0 0.0 0.00 0.00 0.00 71 1014.9
20260507193431 51 186 0.0 0.0 0.00 0.00 0.00 71 1014.8
20260507192931 51 186 0.0 0.0 0.00 0.00 0.00 70 1014.7
20260507192431 51 186 0.0 0.0 0.00 0.00 0.00 70 1014.4
20260507191931 51 186 0.0 0.0 0.00 0.00 0.00 70 1014.6
20260507191431 51 186 0.0 0.0 0.00 0.00 0.00 69 1014.6
20260507190931 51 186 0.0 0.0 0.00 0.00 0.00 69 1014.6
20260507190430 52 186 0.0 0.0 0.00 0.00 0.00 69 1014.6
20260507185927 52 186 0.0 0.0 0.00 0.00 0.00 69 1014.4
20260507185428 52 186 0.0 0.0 0.00 0.00 0.00 69 1014.5
20260507184927 52 186 0.0 0.0 0.00 0.00 0.00 68 1014.5
20260507184424 53 186 0.0 0.0 0.00 0.00 0.00 68 1014.5
20260507183922 53 186 0.0 0.0 0.00 0.00 0.00 68 1014.4
20260507183420 53 186 0.0 0.0 0.00 0.00 0.00 68 1014.4
20260507182917 53 186 0.0 0.0 0.00 0.00 0.00 68 1014.4
20260507182415 54 186 0.0 0.0 0.00 0.00 0.00 68 1014.4
20260507181914 54 186 0.0 0.0 0.00 0.00 0.00 67 1014.4
20260507181412 54 186 0.0 0.0 0.00 0.00 0.00 67 1014.4
20260507180910 54 186 0.0 0.0 0.00 0.00 0.00 67 1014.4
20260507180408 55 186 0.0 0.0 0.00 0.00 0.00 67 1014.3
20260507175906 55 186 0.0 0.0 0.00 0.00 0.00 67 1014.4
20260507175403 55 186 0.0 0.0 0.00 0.00 0.00 68 1014.3
20260507174906 55 186 0.0 0.0 0.00 0.00 0.00 68 1014.3
20260507174403 55 186 0.0 0.0 0.00 0.00 0.00 69 1014.3
20260507173903 55 186 0.0 0.0 0.00 0.00 0.00 70 1014.3
20260507173402 54 174 0.0 0.0 0.00 0.00 0.00 69 1014.3
20260507172903 54 174 0.0 0.0 0.00 0.00 0.00 70 1014.4
20260507172402 54 174 0.0 0.0 0.00 0.00 0.00 69 1014.3
20260507171902 54 174 0.0 0.0 0.00 0.00 0.00 69 1014.4
20260507171402 54 179 0.0 0.0 0.00 0.00 0.00 69 1014.4
20260507170858 54 179 0.0 0.0 0.00 0.00 0.00 69 1014.3
20260507170356 54 179 0.0 0.0 0.00 0.00 0.00 69 1014.3
20260507165855 54 179 0.0 0.0 0.00 0.00 0.00 70 1014.4
20260507165354 54 179 0.0 0.0 0.00 0.00 0.00 69 1014.3
20260507164852 54 179 0.0 0.0 0.00 0.00 0.00 69 1014.4
20260507164350 55 179 0.0 0.0 0.00 0.00 0.00 69 1014.4
20260507163848 55 179 0.0 0.0 0.00 0.00 0.00 69 1014.3
20260507163347 55 179 0.0 0.0 0.00 0.00 0.00 68 1014.3
20260507162847 55 178 0.0 0.0 0.00 0.00 0.00 68 1014.3
20260507162355 55 179 0.0 0.0 0.00 0.00 0.00 68 1014.3
20260507161844 55 179 0.0 0.0 0.00 0.00 0.00 68 1014.4
20260507161341 55 179 0.0 0.0 0.00 0.00 0.00 68 1014.5
20260507160840 56 179 0.0 0.0 0.00 0.00 0.00 67 1014.4
20260507160340 56 179 0.0 0.9 0.00 0.00 0.00 67 1014.4
20260507155838 56 97 0.0 1.7 0.00 0.00 0.00 67 1014.5
20260507155336 56 96 0.0 1.7 0.00 0.00 0.00 67 1014.5
20260507154833 56 95 0.0 0.9 0.00 0.00 0.00 66 1014.5
20260507154334 57 165 0.0 0.9 0.00 0.00 0.00 67 1014.4
20260507153833 57 140 0.0 0.9 0.00 0.00 0.00 66 1014.5
20260507153331 57 141 0.0 0.9 0.00 0.00 0.00 66 1014.5
20260507152831 57 209 0.0 0.9 0.00 0.00 0.00 66 1014.5
20260507152328 58 207 0.0 0.9 0.00 0.00 0.00 66 1014.5
20260507151821 58 203 0.0 0.9 0.00 0.00 0.00 67 1014.5
20260507151316 58 108 0.0 1.7 0.00 0.00 0.00 67 1014.6
20260507150810 57 92 0.0 1.7 0.00 0.00 0.00 66 1014.6
20260507150309 57 214 0.0 0.0 0.00 0.00 0.00 66 1014.7
20260507145808 57 214 0.0 0.0 0.00 0.00 0.00 67 1014.7
20260507145307 57 214 0.0 0.0 0.00 0.00 0.00 66 1014.7
20260507144807 57 214 0.0 0.0 0.00 0.00 0.00 65 1014.6
20260507144305 57 214 0.0 0.0 0.00 0.00 0.00 64 1014.7
20260507143803 57 214 0.0 0.0 0.00 0.00 0.00 64 1014.8
20260507143309 57 212 0.0 0.0 0.00 0.00 0.00 66 1014.8
20260507142803 57 212 0.0 0.9 0.00 0.00 0.00 63 1014.8
20260507142306 57 214 0.0 0.9 0.00 0.00 0.00 65 1014.9
20260507141802 57 210 0.0 0.0 0.00 0.00 0.00 64 1014.9
20260507141302 58 210 0.0 0.0 0.00 0.00 0.00 64 1014.9
20260507140802 58 210 0.0 0.0 0.00 0.00 0.00 65 1014.9
20260507140303 58 210 0.0 0.0 0.00 0.00 0.00 64 1015.0
20260507135802 58 205 0.0 0.0 0.00 0.00 0.00 65 1014.9
20260507135306 58 207 0.0 0.0 0.00 0.00 0.00 63 1015.0
20260507134802 58 215 0.0 0.0 0.00 0.00 0.00 63 1015.0
20260507134303 58 218 0.0 0.0 0.00 0.00 0.00 64 1015.0
20260507133802 59 212 0.0 0.0 0.00 0.00 0.00 65 1015.0
20260507133303 59 219 0.0 1.7 0.00 0.00 0.00 65 1014.9
20260507132802 59 219 0.9 1.7 0.00 0.00 0.00 64 1015.0
20260507132307 59 219 0.9 3.5 0.00 0.00 0.00 63 1015.0
20260507131802 60 214 0.0 3.5 0.00 0.00 0.00 63 1015.1
20260507131303 61 209 0.0 2.6 0.00 0.00 0.00 62 1015.0
20260507130803 61 220 0.0 1.7 0.00 0.00 0.00 62 1015.0
20260507130303 61 218 0.0 1.7 0.00 0.00 0.00 64 1015.1
20260507125803 61 217 0.0 1.7 0.00 0.00 0.00 63 1015.1
20260507125306 61 197 0.0 1.7 0.00 0.00 0.00 63 1015.1
20260507124803 60 132 0.0 0.9 0.00 0.00 0.00 65 1015.1
20260507124302 60 200 0.0 2.6 0.00 0.00 0.00 63 1015.1
20260507123802 60 200 0.0 2.6 0.00 0.00 0.00 62 1015.1
20260507123302 60 203 0.0 0.9 0.00 0.00 0.00 63 1015.1
20260507122803 60 156 0.0 0.9 0.00 0.00 0.00 62 1015.1
20260507122306 60 219 0.0 0.0 0.00 0.00 0.00 63 1015.2
20260507121804 60 208 0.0 0.9 0.00 0.00 0.00 63 1015.2
20260507121302 60 207 0.0 0.9 0.00 0.00 0.00 63 1015.2
20260507120802 60 208 0.0 0.0 0.00 0.00 0.00 61 1015.2
20260507120302 59 131 0.0 0.0 0.00 0.00 0.00 61 1015.3
20260507115803 60 127 0.0 0.0 0.00 0.00 0.00 60 1015.2
20260507115306 60 94 0.0 0.0 0.00 0.00 0.00 60 1015.2
20260507114802 60 211 0.0 0.0 0.00 0.00 0.00 60 1015.3
20260507114302 60 189 0.0 0.0 0.00 0.00 0.00 58 1015.2
20260507113803 60 184 0.0 0.0 0.00 0.00 0.00 58 1015.2
20260507113302 60 210 0.0 0.0 0.00 0.00 0.00 59 1015.2
20260507112803 61 213 0.0 1.7 0.00 0.00 0.00 58 1015.1
20260507112306 61 223 0.0 1.7 0.00 0.00 0.00 57 1015.2
20260507111803 62 191 0.0 1.7 0.00 0.00 0.00 54 1015.2
20260507111303 62 229 0.0 1.7 0.00 0.00 0.00 56 1015.2
20260507110803 62 107 0.0 2.6 0.00 0.00 0.00 58 1015.2
20260507110319 61 215 0.0 2.6 0.00 0.00 0.00 62 1015.2
20260507105804 60 102 0.0 0.9 0.00 0.00 0.00 65 1015.4
20260507105306 58 103 0.0 1.7 0.00 0.00 0.00 64 1015.3
20260507104802 58 104 0.0 1.7 0.00 0.00 0.00 65 1015.4
20260507104259 59 103 0.0 1.7 0.00 0.00 0.00 65 1015.3
20260507103758 59 124 0.0 1.7 0.00 0.00 0.00 64 1015.4
20260507103255 60 207 0.0 0.9 0.00 0.00 0.00 63 1015.4
20260507102754 61 205 0.0 1.7 0.00 0.00 0.00 63 1015.5
20260507102251 62 205 0.0 1.7 0.00 0.00 0.00 65 1015.5
20260507101750 62 210 0.0 1.7 0.00 0.00 0.00 66 1015.7
20260507101247 61 106 0.0 1.7 0.00 0.00 0.00 67 1015.7
20260507100746 61 105 0.0 0.9 0.00 0.00 0.00 66 1015.8
20260507100243 60 111 0.0 0.9 0.00 0.00 0.00 68 1015.7
20260507095742 59 205 0.0 0.9 0.00 0.00 0.00 70 1015.7
20260507095239 59 206 0.0 0.9 0.00 0.00 0.00 67 1015.7
20260507094736 59 195 0.0 0.9 0.00 0.00 0.00 68 1015.5
20260507094235 59 131 0.0 0.9 0.00 0.00 0.00 67 1015.4
20260507093732 59 182 0.0 1.7 0.00 0.00 0.00 67 1015.5
20260507093229 59 190 0.0 2.6 0.00 0.00 0.00 67 1015.7
20260507092727 59 109 0.0 2.6 0.00 0.00 0.00 68 1015.5
20260507092225 59 124 0.0 1.7 0.00 0.00 0.00 69 1015.7
20260507091725 59 189 0.0 0.0 0.00 0.00 0.00 69 1015.9
20260507091223 59 164 0.0 0.0 0.00 0.00 0.00 70 1015.9
20260507090721 58 165 0.0 0.0 0.00 0.00 0.00 72 1015.7
20260507090223 58 186 0.0 0.9 0.00 0.00 0.00 72 1015.8
20260507085720 57 188 0.0 0.9 0.00 0.00 0.00 72 1015.8
20260507085218 57 103 0.0 0.9 0.00 0.00 0.00 72 1015.8
20260507084717 56 187 0.0 1.7 0.00 0.00 0.00 74 1015.8
20260507084217 56 188 0.0 1.7 0.00 0.00 0.00 73 1015.8
20260507083717 56 161 0.0 0.9 0.00 0.00 0.00 76 1015.7
20260507083214 55 160 0.0 0.9 0.00 0.00 0.00 77 1015.8
20260507082712 54 165 0.0 2.6 0.00 0.00 0.00 77 1015.8
20260507082211 53 146 0.0 2.6 0.00 0.00 0.00 77 1015.8
20260507081708 53 164 0.0 0.9 0.00 0.00 0.00 80 1015.8
20260507081207 51 172 0.0 0.9 0.00 0.00 0.00 80 1015.8
20260507080703 51 129 0.0 0.9 0.00 0.00 0.00 79 1015.8
20260507080202 51 129 0.0 0.9 0.00 0.00 0.00 81 1015.9
20260507075703 50 120 0.0 0.9 0.00 0.00 0.00 82 1015.8
20260507075202 50 120 0.0 0.9 0.00 0.00 0.00 83 1015.8
20260507074702 49 118 0.0 0.9 0.00 0.00 0.00 83 1015.7
20260507074205 49 142 0.0 0.9 0.00 0.00 0.00 84 1015.7
20260507073702 48 118 0.0 1.7 0.00 0.00 0.00 84 1015.5
20260507073205 48 110 0.0 1.7 0.00 0.00 0.00 84 1015.5
20260507072703 47 158 0.0 0.9 0.00 0.00 0.00 85 1015.7
20260507072202 47 159 0.0 0.9 0.00 0.00 0.00 86 1015.7
20260507071704 47 128 0.0 0.9 0.00 0.00 0.00 86 1015.7
20260507071202 46 136 0.0 0.9 0.00 0.00 0.00 86 1015.7
20260507070703 46 136 0.0 0.9 0.00 0.00 0.00 87 1015.7
20260507070203 46 136 0.0 0.9 0.00 0.00 0.00 87 1015.5
20260507065702 45 136 0.0 0.9 0.00 0.00 0.00 87 1015.5
20260507065204 45 136 0.0 0.9 0.00 0.00 0.00 87 1015.4
20260507064703 45 137 0.0 0.9 0.00 0.00 0.00 87 1015.5
20260507064203 45 137 0.0 0.9 0.00 0.00 0.00 87 1015.5
20260507063706 45 161 0.0 0.0 0.00 0.00 0.00 88 1015.5
20260507063202 44 161 0.0 0.0 0.00 0.00 0.00 88 1015.5
20260507062656 44 161 0.0 0.0 0.00 0.00 0.00 87 1015.5
20260507062150 44 162 0.0 0.0 0.00 0.00 0.00 88 1015.5
20260507061645 44 162 0.0 0.9 0.00 0.00 0.00 87 1015.7
20260507061138 44 127 0.0 0.9 0.00 0.00 0.00 88 1015.4
20260507060632 44 127 0.0 0.0 0.00 0.00 0.00 88 1015.2
20260507060131 44 127 0.0 0.0 0.00 0.00 0.00 88 1015.2
20260507055631 44 127 0.0 0.0 0.00 0.00 0.00 88 1015.1
20260507055128 44 127 0.0 0.9 0.00 0.00 0.00 88 1015.1
20260507054626 44 127 0.0 0.9 0.00 0.00 0.00 88 1015.0
20260507054127 44 125 0.0 0.9 0.00 0.00 0.00 88 1015.1
20260507053626 44 125 0.0 0.9 0.00 0.00 0.00 88 1015.0
20260507053120 43 167 0.0 0.9 0.00 0.00 0.00 87 1015.0
20260507052620 43 142 0.0 0.9 0.00 0.00 0.00 87 1015.0
20260507052121 43 155 0.0 0.9 0.00 0.00 0.00 87 1015.0
20260507051618 43 115 0.0 0.9 0.00 0.00 0.00 87 1015.0
20260507051116 43 115 0.0 0.9 0.00 0.00 0.00 87 1015.1
20260507050627 43 115 0.0 0.0 0.00 0.00 0.00 87 1015.1
20260507050113 43 115 0.0 0.0 0.00 0.00 0.00 87 1015.2
20260507045613 43 115 0.0 0.0 0.00 0.00 0.00 87 1015.1
20260507045113 43 115 0.0 0.0 0.00 0.00 0.00 87 1015.0
20260507044610 43 115 0.0 0.0 0.00 0.00 0.00 87 1014.9
20260507044108 43 115 0.0 0.0 0.00 0.00 0.00 87 1015.0
20260507043606 43 115 0.0 0.9 0.00 0.00 0.00 87 1015.0
20260507043104 43 115 0.0 0.9 0.00 0.00 0.00 87 1015.0
20260507042602 43 115 0.0 0.9 0.00 0.00 0.00 87 1014.9
20260507042103 43 115 0.0 1.7 0.00 0.00 0.00 87 1014.8
20260507041559 43 115 0.0 1.7 0.00 0.00 0.00 87 1014.8
20260507041054 43 172 0.0 0.0 0.00 0.00 0.00 87 1014.8
20260507040554 43 171 0.0 0.0 0.00 0.00 0.00 86 1014.9
20260507040054 43 171 0.0 0.0 0.00 0.00 0.00 86 1014.9
20260507035556 43 172 0.0 0.0 0.00 0.00 0.00 86 1014.9
20260507035055 43 172 0.0 0.0 0.00 0.00 0.00 86 1014.9
20260507034554 43 172 0.0 0.0 0.00 0.00 0.00 86 1014.9
20260507034055 43 171 0.0 0.0 0.00 0.00 0.00 86 1015.0
20260507033554 43 171 0.0 0.0 0.00 0.00 0.00 86 1014.9
20260507033055 43 171 0.0 0.0 0.00 0.00 0.00 86 1014.9
20260507032554 43 171 0.0 0.0 0.00 0.00 0.00 86 1015.0
20260507032055 43 171 0.0 0.0 0.00 0.00 0.00 86 1014.8
20260507031552 43 174 0.0 0.0 0.00 0.00 0.00 86 1014.9
20260507031052 43 176 0.0 0.0 0.00 0.00 0.00 86 1014.9
20260507030552 43 176 0.0 0.0 0.00 0.00 0.00 86 1014.9
20260507030053 43 177 0.0 0.0 0.00 0.00 0.00 86 1014.9
20260507025552 43 177 0.0 0.0 0.00 0.00 0.00 86 1014.8
20260507025053 43 176 0.0 0.0 0.00 0.00 0.00 86 1014.9
20260507024553 43 177 0.0 0.0 0.00 0.00 0.00 86 1014.7
20260507024052 43 176 0.0 0.0 0.00 0.00 0.00 86 1014.7
20260507023552 43 176 0.0 0.0 0.00 0.00 0.00 86 1014.8
20260507023052 43 176 0.0 0.0 0.00 0.00 0.00 86 1014.6
20260507022552 43 176 0.0 0.0 0.00 0.00 0.00 86 1014.7
20260507022106 43 176 0.0 0.0 0.00 0.00 0.00 86 1014.6
20260507021553 43 176 0.0 0.0 0.00 0.00 0.00 85 1014.8
20260507021052 43 176 0.0 0.0 0.00 0.00 0.00 85 1014.7